{"data":{"norad_id":38012,"intl_designator":"2011-076F","name":"PLEIADES 1A","alt_names":[],"object_type":"PAYLOAD","status":"ACTIVE","operator":null,"country":"FR","launch_date":"2011-12-17","launch_site_code":"FRGUI","launch_vehicle":null,"mission":null,"orbit_class":"UNKNOWN","rcs_meters":5.3462,"size_class":null,"mass_kg":null,"dimensions":null,"purposes":["earth_obs"],"wikipedia_slug":null,"has_3d_model":false,"image_url":null,"decayed_at":null,"tle_current":{"epoch":"2026-09-20T05:05:05.743392Z","epoch_age_seconds":39347,"freshness":"FRESH","line1":"1 38012U 11076F   26263.21187203  .00000091  00000+0  29418-4 0  9999","line2":"2 38012  98.1901 337.0009 0001266 103.6508 340.9653 14.58543329785840","mean_motion":14.58543329,"eccentricity":0.0001266,"inclination_deg":98.1901,"raan_deg":337.0009,"arg_perigee_deg":103.6508,"mean_anomaly_deg":340.9653,"bstar":2.9418e-5,"rev_number":78584,"period_min":98.728640511989,"perigee_km":696.98553707183,"apogee_km":698.77718492083,"semimajor_km":7076.0183609963,"source":"CELESTRAK","updated_at":"2026-09-20T09:00:33.892627Z"}}}